When you browse on this site, cookies collect data to enhance your experience and personalize the content and advertising you see.
Visit our Privacy Policy to learn more. By continuing to use the site, you agree to this use of cookies and data.

Hourly Weather Philadelphia

Today, 12 July, Sunday

Time Temperature Precipitation Wind Pressure Humidity
00:00 +27°C° 0 mm 4 mps 754 mmHg 70%
01:00 +26°C° 0 mm 3 mps 754 mmHg 71%
02:00 +26°C° 0 mm 3 mps 754 mmHg 69%
03:00 +25°C° 0 mm 3 mps 754 mmHg 67%
04:00 +25°C° 0 mm 3 mps 754 mmHg 65%
05:00 +25°C° 0 mm 3 mps 754 mmHg 64%
06:00 +26°C° 0 mm 2 mps 755 mmHg 63%
07:00 +26°C° 0 mm 2 mps 755 mmHg 63%
08:00 +28°C° 0 mm 2 mps 755 mmHg 57%
09:00 +30°C° 0 mm 3 mps 755 mmHg 51%
10:00 +31°C° 0 mm 3 mps 755 mmHg 45%
11:00 +33°C° 0 mm 4 mps 755 mmHg 43%
12:00 +34°C° 0 mm 4 mps 755 mmHg 41%
13:00 +35°C° 0 mm 4 mps 755 mmHg 39%
14:00 +35°C° 0 mm 4 mps 755 mmHg 40%
15:00 +34°C° 0 mm 4 mps 754 mmHg 41%
16:00 +34°C° 0 mm 4 mps 754 mmHg 42%
17:00 +33°C° 0 mm 4 mps 754 mmHg 45%
18:00 +33°C° 0 mm 3 mps 754 mmHg 48%
19:00 +31°C° 0 mm 3 mps 754 mmHg 51%
20:00 +30°C° 0.2 mm 3 mps 755 mmHg 56%
21:00 +29°C° 0.2 mm 2 mps 755 mmHg 60%
22:00 +28°C° 0.2 mm 2 mps 755 mmHg 65%
23:00 +27°C° 0.4 mm 2 mps 755 mmHg 67%

Tomorrow, 13 July, Monday

Time Temperature Precipitation Wind Pressure Humidity
00:00 +27°C° 0.4 mm 2 mps 755 mmHg 69%
01:00 +27°C° 0.4 mm 2 mps 755 mmHg 72%
02:00 +26°C° 0.3 mm 2 mps 755 mmHg 72%
03:00 +26°C° 0.3 mm 2 mps 755 mmHg 72%
04:00 +26°C° 0.3 mm 1 mps 754 mmHg 73%
05:00 +26°C° 0.1 mm 1 mps 755 mmHg 71%
06:00 +27°C° 0.1 mm 1 mps 755 mmHg 70%
07:00 +27°C° 0.1 mm 1 mps 755 mmHg 69%
08:00 +27°C° 0.1 mm 2 mps 755 mmHg 67%
09:00 +28°C° 0.1 mm 2 mps 755 mmHg 65%
10:00 +29°C° 0.1 mm 3 mps 755 mmHg 63%
11:00 +29°C° 0.3 mm 3 mps 755 mmHg 63%
12:00 +29°C° 0.3 mm 2 mps 755 mmHg 63%
13:00 +29°C° 0.3 mm 2 mps 755 mmHg 63%
14:00 +30°C° 1.9 mm 2 mps 755 mmHg 62%
15:00 +30°C° 1.9 mm 2 mps 755 mmHg 60%
16:00 +30°C° 1.9 mm 3 mps 755 mmHg 59%
17:00 +30°C° 0.3 mm 2 mps 755 mmHg 59%
18:00 +29°C° 0.3 mm 2 mps 755 mmHg 60%
19:00 +29°C° 0.3 mm 2 mps 756 mmHg 61%
20:00 +28°C° 0 mm 2 mps 756 mmHg 62%
21:00 +27°C° 0 mm 2 mps 757 mmHg 64%
22:00 +27°C° 0 mm 3 mps 757 mmHg 65%
23:00 +26°C° 0 mm 3 mps 757 mmHg 64%

Day after tomorrow, 14 July, Tuesday

Time Temperature Precipitation Wind Pressure Humidity
00:00 +25°C° 0 mm 3 mps 757 mmHg 63%
01:00 +25°C° 0 mm 3 mps 757 mmHg 61%
02:00 +24°C° 0 mm 3 mps 757 mmHg 61%
03:00 +24°C° 0 mm 2 mps 758 mmHg 61%
04:00 +23°C° 0 mm 2 mps 758 mmHg 61%
05:00 +24°C° 0 mm 3 mps 758 mmHg 60%
06:00 +24°C° 0 mm 3 mps 759 mmHg 59%
07:00 +24°C° 0 mm 3 mps 759 mmHg 58%
08:00 +26°C° 0 mm 3 mps 759 mmHg 53%
09:00 +27°C° 0 mm 3 mps 760 mmHg 48%
10:00 +29°C° 0 mm 4 mps 760 mmHg 43%
11:00 +29°C° 0 mm 4 mps 759 mmHg 40%
12:00 +30°C° 0 mm 3 mps 759 mmHg 38%
13:00 +31°C° 0 mm 3 mps 759 mmHg 36%
14:00 +32°C° 0 mm 4 mps 759 mmHg 38%
15:00 +32°C° 0 mm 4 mps 759 mmHg 40%
16:00 +32°C° 0 mm 4 mps 759 mmHg 41%
17:00 +32°C° 0 mm 4 mps 759 mmHg 44%
18:00 +30°C° 0 mm 3 mps 760 mmHg 46%
19:00 +29°C° 0 mm 3 mps 760 mmHg 49%
20:00 +28°C° 0 mm 3 mps 760 mmHg 50%
21:00 +28°C° 0 mm 2 mps 761 mmHg 52%
22:00 +27°C° 0 mm 2 mps 761 mmHg 54%
23:00 +27°C° 0 mm 2 mps 761 mmHg 55%

15 July, Wednesday

Time Temperature Precipitation Wind Pressure Humidity
00:00 +26°C° 0 mm 2 mps 761 mmHg 57%
01:00 +25°C° 0 mm 2 mps 762 mmHg 58%
02:00 +25°C° 0 mm 2 mps 762 mmHg 60%
03:00 +24°C° 0 mm 2 mps 762 mmHg 61%
04:00 +24°C° 0 mm 2 mps 762 mmHg 63%
05:00 +25°C° 0 mm 1 mps 762 mmHg 61%
06:00 +25°C° 0 mm 1 mps 763 mmHg 59%
07:00 +26°C° 0 mm 1 mps 763 mmHg 58%
08:00 +28°C° 0 mm 1 mps 763 mmHg 51%
09:00 +29°C° 0 mm 1 mps 764 mmHg 45%
10:00 +31°C° 0 mm 1 mps 764 mmHg 39%
11:00 +32°C° 0 mm 1 mps 764 mmHg 36%
12:00 +33°C° 0 mm 1 mps 764 mmHg 33%
13:00 +35°C° 0 mm 2 mps 763 mmHg 31%
14:00 +35°C° 0 mm 2 mps 763 mmHg 31%
15:00 +35°C° 0 mm 2 mps 763 mmHg 32%
16:00 +35°C° 0 mm 2 mps 762 mmHg 32%
17:00 +33°C° 0 mm 3 mps 763 mmHg 43%
18:00 +30°C° 0 mm 4 mps 763 mmHg 54%
19:00 +28°C° 0 mm 4 mps 763 mmHg 65%
20:00 +27°C° 0 mm 4 mps 763 mmHg 69%
21:00 +26°C° 0 mm 4 mps 764 mmHg 73%
22:00 +25°C° 0 mm 3 mps 764 mmHg 77%
23:00 +25°C° 0 mm 3 mps 764 mmHg 79%

16 July, Thursday

Time Temperature Precipitation Wind Pressure Humidity
00:00 +24°C° 0 mm 3 mps 764 mmHg 80%
01:00 +24°C° 0 mm 2 mps 764 mmHg 81%
02:00 +24°C° 0 mm 2 mps 764 mmHg 82%
03:00 +24°C° 0 mm 2 mps 764 mmHg 82%
04:00 +24°C° 0 mm 2 mps 764 mmHg 82%
05:00 +25°C° 0 mm 3 mps 764 mmHg 80%
06:00 +25°C° 0 mm 3 mps 764 mmHg 78%
07:00 +26°C° 0 mm 3 mps 764 mmHg 76%
08:00 +27°C° 0 mm 3 mps 764 mmHg 69%
09:00 +28°C° 0 mm 4 mps 764 mmHg 63%
10:00 +30°C° 0 mm 4 mps 764 mmHg 56%
11:00 +32°C° 0 mm 4 mps 764 mmHg 52%
12:00 +33°C° 0 mm 5 mps 764 mmHg 48%
13:00 +34°C° 0 mm 5 mps 764 mmHg 45%
14:00 +34°C° 0 mm 5 mps 763 mmHg 46%
15:00 +34°C° 0 mm 5 mps 763 mmHg 47%
16:00 +33°C° 0 mm 6 mps 762 mmHg 48%
17:00 +32°C° 0 mm 5 mps 762 mmHg 52%
18:00 +30°C° 0 mm 5 mps 762 mmHg 56%
19:00 +29°C° 0 mm 5 mps 762 mmHg 60%
20:00 +28°C° 0.1 mm 4 mps 762 mmHg 63%
21:00 +27°C° 0.1 mm 4 mps 762 mmHg 65%
22:00 +27°C° 0.1 mm 4 mps 762 mmHg 67%
23:00 +26°C° 1.2 mm 4 mps 762 mmHg 71%

17 July, Friday

Time Temperature Precipitation Wind Pressure Humidity
00:00 +26°C° 1.2 mm 3 mps 762 mmHg 75%
01:00 +26°C° 1.2 mm 3 mps 761 mmHg 79%
02:00 +26°C° 2.1 mm 3 mps 761 mmHg 83%
03:00 +26°C° 2.1 mm 3 mps 761 mmHg 86%
04:00 +26°C° 2.1 mm 2 mps 761 mmHg 90%
05:00 +26°C° 1.8 mm 2 mps 761 mmHg 88%
06:00 +27°C° 1.8 mm 2 mps 761 mmHg 87%
07:00 +28°C° 1.8 mm 2 mps 761 mmHg 86%
08:00 +29°C° 0.2 mm 2 mps 761 mmHg 79%
09:00 +31°C° 0.2 mm 1 mps 761 mmHg 72%
10:00 +32°C° 0.2 mm 1 mps 761 mmHg 66%
11:00 +33°C° 0.6 mm 1 mps 761 mmHg 62%
12:00 +34°C° 0.6 mm 1 mps 761 mmHg 58%
13:00 +35°C° 0.6 mm 1 mps 760 mmHg 54%
14:00 +35°C° 0.5 mm 1 mps 760 mmHg 53%
15:00 +35°C° 0.5 mm 1 mps 760 mmHg 53%
16:00 +36°C° 0.5 mm 2 mps 760 mmHg 52%
17:00 +35°C° 0.1 mm 2 mps 760 mmHg 55%
18:00 +34°C° 0.1 mm 2 mps 759 mmHg 59%
19:00 +32°C° 0.1 mm 2 mps 759 mmHg 62%
20:00 +31°C° 0 mm 2 mps 760 mmHg 64%
21:00 +30°C° 0 mm 2 mps 760 mmHg 66%
22:00 +30°C° 0 mm 1 mps 760 mmHg 68%
23:00 +29°C° 0 mm 1 mps 760 mmHg 69%
Show more